When you browse on this site, cookies collect data to enhance your experience and personalize the content and advertising you see.
Visit our Privacy Policy to learn more. By continuing to use the site, you agree to this use of cookies and data.
  • In Slovakia
  • List of Countries
  • For 7 days
  • Water Temperature
  • Satellite Maps
  • Weather Map
  • Weather Widgets
  • user-avatar
    Login

    Hourly Weather San Juan

    Today, 12 December, Wednesday

    Time Temperature Precipitation Wind Pressure Humidity
    00:00 +28°C° 0 mm 4 mps 705 mmHg 49%
    01:00 +27°C° 0 mm 5 mps 705 mmHg 50%
    02:00 +26°C° 0 mm 5 mps 705 mmHg 55%
    03:00 +26°C° 0 mm 6 mps 706 mmHg 60%
    04:00 +24°C° 0 mm 7 mps 706 mmHg 65%
    05:00 +24°C° 0 mm 7 mps 706 mmHg 63%
    06:00 +24°C° 0 mm 6 mps 706 mmHg 60%
    07:00 +24°C° 0 mm 6 mps 706 mmHg 57%
    08:00 +26°C° 0 mm 6 mps 706 mmHg 51%
    09:00 +27°C° 0 mm 5 mps 705 mmHg 45%
    10:00 +28°C° 0 mm 4 mps 705 mmHg 38%
    11:00 +29°C° 0 mm 3 mps 704 mmHg 36%
    12:00 +31°C° 0 mm 3 mps 703 mmHg 33%
    13:00 +32°C° 0 mm 2 mps 702 mmHg 30%
    14:00 +33°C° 0 mm 3 mps 702 mmHg 28%
    15:00 +34°C° 0 mm 3 mps 701 mmHg 27%
    16:00 +35°C° 0 mm 3 mps 701 mmHg 25%
    17:00 +34°C° 0.1 mm 4 mps 701 mmHg 28%
    18:00 +32°C° 0.1 mm 4 mps 701 mmHg 32%
    19:00 +30°C° 0.1 mm 4 mps 701 mmHg 36%
    20:00 +29°C° 0.4 mm 3 mps 701 mmHg 38%
    21:00 +29°C° 0.4 mm 2 mps 701 mmHg 41%
    22:00 +28°C° 0.4 mm 2 mps 701 mmHg 44%
    23:00 +28°C° 0.3 mm 1 mps 701 mmHg 45%

    Tomorrow, 13 December, Thursday

    Time Temperature Precipitation Wind Pressure Humidity
    00:00 +27°C° 0.3 mm 1 mps 700 mmHg 46%
    01:00 +27°C° 0.3 mm 1 mps 700 mmHg 48%
    02:00 +27°C° 0 mm 1 mps 700 mmHg 49%
    03:00 +26°C° 0 mm 1 mps 699 mmHg 51%
    04:00 +26°C° 0 mm 1 mps 699 mmHg 52%
    05:00 +27°C° 0 mm 2 mps 699 mmHg 49%
    06:00 +29°C° 0 mm 3 mps 699 mmHg 45%
    07:00 +30°C° 0 mm 3 mps 700 mmHg 42%
    08:00 +33°C° 0 mm 4 mps 699 mmHg 34%
    09:00 +35°C° 0 mm 5 mps 699 mmHg 27%
    10:00 +37°C° 0 mm 5 mps 699 mmHg 19%
    11:00 +39°C° 0 mm 7 mps 698 mmHg 15%
    12:00 +42°C° 0 mm 9 mps 698 mmHg 12%
    13:00 +44°C° 0 mm 11 mps 697 mmHg 8%
    14:00 +43°C° 0 mm 12 mps 697 mmHg 7%
    15:00 +43°C° 0 mm 13 mps 698 mmHg 6%
    16:00 +42°C° 0 mm 15 mps 698 mmHg 5%
    17:00 +40°C° 0 mm 14 mps 698 mmHg 5%
    18:00 +37°C° 0 mm 13 mps 699 mmHg 5%
    19:00 +36°C° 0 mm 13 mps 700 mmHg 5%
    20:00 +33°C° 0 mm 11 mps 700 mmHg 8%
    21:00 +32°C° 0 mm 9 mps 701 mmHg 10%
    22:00 +29°C° 0 mm 7 mps 701 mmHg 12%
    23:00 +28°C° 0 mm 6 mps 701 mmHg 20%

    Day after tomorrow, 14 December, Friday

    Time Temperature Precipitation Wind Pressure Humidity
    00:00 +27°C° 0 mm 5 mps 701 mmHg 29%
    01:00 +26°C° 0 mm 4 mps 701 mmHg 37%
    02:00 +26°C° 0 mm 5 mps 702 mmHg 38%
    03:00 +24°C° 0 mm 6 mps 702 mmHg 40%
    04:00 +23°C° 0 mm 7 mps 703 mmHg 41%
    05:00 +23°C° 0 mm 7 mps 703 mmHg 37%
    06:00 +23°C° 0 mm 7 mps 704 mmHg 33%
    07:00 +23°C° 0 mm 6 mps 705 mmHg 29%
    08:00 +25°C° 0 mm 5 mps 704 mmHg 27%
    09:00 +26°C° 0 mm 5 mps 704 mmHg 24%
    10:00 +27°C° 0 mm 4 mps 704 mmHg 21%
    11:00 +28°C° 0 mm 4 mps 703 mmHg 19%
    12:00 +30°C° 0 mm 3 mps 703 mmHg 18%
    13:00 +31°C° 0 mm 3 mps 702 mmHg 16%
    14:00 +32°C° 0 mm 4 mps 702 mmHg 15%
    15:00 +33°C° 0 mm 4 mps 702 mmHg 15%
    16:00 +33°C° 0 mm 5 mps 702 mmHg 15%
    17:00 +32°C° 0 mm 5 mps 703 mmHg 16%
    18:00 +30°C° 0 mm 5 mps 704 mmHg 18%
    19:00 +29°C° 0 mm 5 mps 704 mmHg 20%
    20:00 +28°C° 0 mm 5 mps 705 mmHg 22%
    21:00 +28°C° 0 mm 5 mps 706 mmHg 23%
    22:00 +27°C° 0 mm 5 mps 707 mmHg 25%
    23:00 +26°C° 0 mm 4 mps 706 mmHg 27%

    15 December, Saturday

    Time Temperature Precipitation Wind Pressure Humidity
    00:00 +25°C° 0 mm 4 mps 706 mmHg 29%
    01:00 +25°C° 0 mm 3 mps 706 mmHg 31%
    02:00 +24°C° 0 mm 3 mps 706 mmHg 32%
    03:00 +22°C° 0 mm 3 mps 706 mmHg 34%
    04:00 +22°C° 0 mm 3 mps 706 mmHg 35%
    05:00 +22°C° 0 mm 3 mps 706 mmHg 34%
    06:00 +24°C° 0 mm 3 mps 707 mmHg 32%
    07:00 +24°C° 0 mm 3 mps 707 mmHg 31%
    08:00 +26°C° 0 mm 2 mps 707 mmHg 29%
    09:00 +27°C° 0 mm 2 mps 707 mmHg 27%
    10:00 +29°C° 0 mm 2 mps 706 mmHg 25%
    11:00 +30°C° 0 mm 2 mps 706 mmHg 23%
    12:00 +31°C° 0 mm 2 mps 705 mmHg 21%
    13:00 +34°C° 0 mm 3 mps 704 mmHg 19%
    14:00 +34°C° 0 mm 3 mps 704 mmHg 19%
    15:00 +34°C° 0 mm 3 mps 704 mmHg 18%
    16:00 +35°C° 0 mm 3 mps 703 mmHg 18%
    17:00 +34°C° 0 mm 3 mps 704 mmHg 19%
    18:00 +33°C° 0 mm 3 mps 705 mmHg 21%
    19:00 +31°C° 0 mm 3 mps 705 mmHg 22%
    20:00 +30°C° 0 mm 3 mps 706 mmHg 24%
    21:00 +29°C° 0 mm 3 mps 706 mmHg 25%
    22:00 +29°C° 0 mm 3 mps 707 mmHg 27%
    23:00 +28°C° 0 mm 3 mps 706 mmHg 29%

    16 December, Sunday

    Time Temperature Precipitation Wind Pressure Humidity
    00:00 +28°C° 0 mm 3 mps 706 mmHg 31%
    01:00 +27°C° 0 mm 3 mps 706 mmHg 34%
    02:00 +27°C° 0 mm 3 mps 706 mmHg 34%
    03:00 +26°C° 0 mm 3 mps 706 mmHg 35%
    04:00 +26°C° 0 mm 2 mps 706 mmHg 35%
    05:00 +27°C° 0 mm 2 mps 706 mmHg 32%
    06:00 +28°C° 0 mm 2 mps 706 mmHg 29%
    07:00 +29°C° 0 mm 2 mps 707 mmHg 27%
    08:00 +31°C° 0 mm 2 mps 707 mmHg 24%
    09:00 +32°C° 0 mm 2 mps 707 mmHg 22%
    10:00 +34°C° 0 mm 2 mps 707 mmHg 19%
    11:00 +35°C° 0 mm 2 mps 706 mmHg 18%
    12:00 +36°C° 0 mm 3 mps 706 mmHg 16%
    13:00 +37°C° 0 mm 3 mps 705 mmHg 15%
    14:00 +38°C° 0 mm 3 mps 705 mmHg 14%
    15:00 +38°C° 0 mm 3 mps 705 mmHg 14%
    16:00 +38°C° 0 mm 4 mps 704 mmHg 14%
    17:00 +37°C° 0 mm 3 mps 705 mmHg 15%
    18:00 +36°C° 0 mm 3 mps 705 mmHg 17%
    19:00 +36°C° 0 mm 3 mps 706 mmHg 18%
    20:00 +35°C° 0 mm 2 mps 706 mmHg 20%
    21:00 +34°C° 0 mm 2 mps 706 mmHg 21%
    22:00 +32°C° 0 mm 2 mps 706 mmHg 23%
    23:00 +31°C° 0 mm 2 mps 706 mmHg 25%

    17 December, Monday

    Time Temperature Precipitation Wind Pressure Humidity
    00:00 +31°C° 0 mm 2 mps 706 mmHg 27%
    01:00 +30°C° 0 mm 2 mps 705 mmHg 29%
    02:00 +30°C° 0 mm 2 mps 706 mmHg 30%
    03:00 +29°C° 0 mm 2 mps 706 mmHg 32%
    04:00 +29°C° 0 mm 2 mps 706 mmHg 33%
    05:00 +30°C° 0 mm 2 mps 706 mmHg 30%
    06:00 +31°C° 0 mm 2 mps 707 mmHg 26%
    07:00 +32°C° 0 mm 2 mps 708 mmHg 23%
    08:00 +34°C° 0 mm 3 mps 707 mmHg 21%
    09:00 +35°C° 0 mm 4 mps 707 mmHg 20%
    10:00 +36°C° 0 mm 5 mps 707 mmHg 19%
    11:00 +36°C° 0 mm 4 mps 707 mmHg 18%
    12:00 +37°C° 0 mm 4 mps 706 mmHg 17%
    13:00 +38°C° 0 mm 3 mps 705 mmHg 17%
    14:00 +38°C° 0 mm 3 mps 705 mmHg 16%
    15:00 +38°C° 0 mm 3 mps 704 mmHg 16%
    16:00 +38°C° 0 mm 3 mps 704 mmHg 16%
    17:00 +37°C° 0.1 mm 3 mps 704 mmHg 18%
    18:00 +36°C° 0.1 mm 3 mps 705 mmHg 19%
    19:00 +36°C° 0.1 mm 3 mps 705 mmHg 21%
    20:00 +35°C° 0.3 mm 3 mps 705 mmHg 24%
    21:00 +34°C° 0.3 mm 3 mps 705 mmHg 27%
    22:00 +34°C° 0.3 mm 3 mps 705 mmHg 29%
    23:00 +33°C° 0.1 mm 3 mps 705 mmHg 32%
    Show more